Regional Weather Roundup
Issued by NWS Cleveland, OH

Home | Current Version | Previous Version | Graphics & Text | Print | Product List | Glossary On
Versions: 1 2 3 4 5 6 7 8 9 10 11 12 13 14 15 16 17 18 19 20 21 22 23 24 25 26 27 28 29 30 31 32 33 34 35 36 37 38 39 40 41 42 43 44 45 46 47 48 49 50
000
ASUS41 KCLE 142310
RWRCLE
OHIO REGIONAL WEATHER ROUNDUP
NATIONAL WEATHER SERVICE WILMINGTON, OH
600 PM EST SUN FEB 14 2016

NOTE: "FAIR" INDICATES FEW OR NO CLOUDS BELOW 12,000 FEET WITH NO
SIGNIFICANT WEATHER AND/OR OBSTRUCTIONS TO VISIBILITY.

OHZ001>008-015>018-024>027-034-035-043-044-150000-
   NORTHWEST OHIO

CITY           SKY/WX    TMP DP  RH WIND       PRES   REMARKS
DEFIANCE       LGT SNOW  20   9  62 SE10      30.23F WCI   9
FINDLAY        LGT SNOW  19   8  62 SE14      30.23F WCI   6
TOLEDO EXPRESS CLOUDY    17   4  56 SE8       30.26F WCI   7
TOLEDO EXEC    CLOUDY    19   5  54 E12       30.28F WCI   7
LIMA           LGT SNOW  16  12  84 E13       30.20S VSB 3/4 WCI   2
$$

OHZ009>014-019>023-028>033-038-089-150000-
   NORTHEAST OHIO

CITY           SKY/WX    TMP DP  RH WIND       PRES   REMARKS
CLE-HOPKINS    CLOUDY    17   1  49 SE10      30.33F WCI   5
CLE-LAKEFRONT  FAIR      19   1  45 SE9       30.33F WCI   8
CUY CO. ARPT   CLOUDY    28   1  31 SE12      30.32F WCI  18
LORAIN-ELYRIA  FAIR      16   2  54 S6        30.31F WCI   7
ASHTABULA      FAIR      13  -1  54 SE5       30.35F WCI   5
AKRON-CANTON   CLOUDY    17   0  47 SE9       30.27F WCI   6
WOOSTER        FAIR      17   4  56 SE8       30.28S WCI   7
MANSFIELD      CLOUDY    16   4  59 E13       30.23F WCI   2
YOUNGSTOWN     CLOUDY    14   1  56 E7        30.31F WCI   4
$$

OHZ042-051>053-060>062-070>072-077>081-150000-
  SOUTHWEST OHIO

CITY           SKY/WX    TMP DP  RH WIND       PRES   REMARKS
CINC-COVINGTON LGT SNOW  18  14  84 E10       30.15F VSB 3/4 WCI   6
CINC-LUNKEN    SNOW      19  16  88 E8        30.20F VSB 1/2 WCI   9
HAMILTON       HVY SNOW  19  17  92 E8        30.20F VSB 1/4 WCI   9
DAYTON         LGT SNOW  15  12  88 E15       30.19R VSB 3/4 WCI   0
WRIGHT-PAT AFB LGT SNOW  17  13  85 E9        30.20S VSB 3/4 WCI   5
DAYTON GENERAL SNOW      17  12  80 E9        30.18R VSB 1/2 WCI   6
WILMINGTON     SNOW      16  13  88 E12       30.16F VSB 1/2 WCI   3
$$

OHZ036-037-039>041-045>050-054>059-063>069-073>076-082>088-150000-
  CENTRAL AND SOUTHEAST OHIO

CITY           SKY/WX    TMP DP  RH WIND       PRES   REMARKS
COLUMBUS       HVY SNOW  16  10  79 SE14      30.25F VSB 1/4 WCI   1
OSU AIRPORT    LGT SNOW  17  12  80 E12       30.23F VSB 3/4 WCI   4
BOLTON FIELD   LGT SNOW  18  12  79 E6        30.24F VSB 1   WCI   9
RICKENBACK AFB LGT SNOW  17  14  87 SE6       30.25S WCI   8
NEWARK         CLOUDY    19   4  51 E12       30.25F WCI   7
MARION         CLOUDY    18   3  52 SE13      30.23F WCI   5
LANCASTER      LGT SNOW  18  12  77 E13       30.26R VSB 3/4 WCI   5
ZANESVILLE     CLOUDY    21   3  45 E14       30.27F WCI   8
NEW PHILLY     FAIR      18   2  49 SE7       30.31F WCI   9
$$



USA.gov is the U.S. government's official web portal to all federal, state and local government web resources and services.